J. Percy Priest Lake Weather Center

Moon Phase Calendar



J. Percy Priest Lake Water Level
Online Cameras

 


      

Current Conditions in Rural Hill
6/26/2022 9:11:35 PM

74°F
Feels Like 75
Mist
Humidity
88%
Pressure
30.12"
Wind
6.9 mph (S)
Dew Point
70°F
UV Index
0/10 (Low)
Visibility
4 mi

Hourly Forecast

Date & Time Sun, Jun 26
9:00 PM
Sun, Jun 26
10:00 PM
Sun, Jun 26
11:00 PM
Mon, Jun 27
12:00 AM
Mon, Jun 27
1:00 AM
Mon, Jun 27
2:00 AM
Mon, Jun 27
3:00 AM
Mon, Jun 27
4:00 AM
Mon, Jun 27
5:00 AM
Mon, Jun 27
6:00 AM
Mon, Jun 27
7:00 AM
Mon, Jun 27
8:00 AM
Mon, Jun 27
9:00 AM
Mon, Jun 27
10:00 AM
Mon, Jun 27
11:00 AM
Mon, Jun 27
12:00 PM
Mon, Jun 27
1:00 PM
Mon, Jun 27
2:00 PM
Mon, Jun 27
3:00 PM
Mon, Jun 27
4:00 PM
Mon, Jun 27
5:00 PM
Mon, Jun 27
6:00 PM
Mon, Jun 27
7:00 PM
Mon, Jun 27
8:00 PM
Mon, Jun 27
9:00 PM
Mon, Jun 27
10:00 PM
Mon, Jun 27
11:00 PM
Tue, Jun 28
12:00 AM
Tue, Jun 28
1:00 AM
Tue, Jun 28
2:00 AM
Tue, Jun 28
3:00 AM
Tue, Jun 28
4:00 AM
Tue, Jun 28
5:00 AM
Tue, Jun 28
6:00 AM
Tue, Jun 28
7:00 AM
Tue, Jun 28
8:00 AM
Tue, Jun 28
9:00 AM
Tue, Jun 28
10:00 AM
Tue, Jun 28
11:00 AM
Tue, Jun 28
12:00 PM
Tue, Jun 28
1:00 PM
Tue, Jun 28
2:00 PM
Tue, Jun 28
3:00 PM
Tue, Jun 28
4:00 PM
Tue, Jun 28
5:00 PM
Tue, Jun 28
6:00 PM
Tue, Jun 28
7:00 PM
Tue, Jun 28
8:00 PM
Condition
Rain

Clouds

Clouds

Rain

Clouds

Rain

Rain

Clouds

Clouds

Clouds

Clouds

Clouds

Clouds

Clouds

Clouds

Clouds

Clouds

Clouds

Clouds

Clouds

Clouds

Clouds

Clouds

Clouds

Clouds

Clouds

Clouds

Clouds

Clouds

Clouds

Clouds

Clouds

Clouds

Clouds

Clouds

Clouds

Clouds

Clouds

Clouds

Clouds

Clouds

Clouds

Clouds

Clouds

Clouds

Clouds

Clouds

Clouds
Temperature 74°F73°F72°F71°F71°F70°F68°F66°F65°F64°F65°F67°F70°F74°F77°F79°F81°F82°F83°F83°F82°F80°F76°F72°F70°F68°F66°F66°F65°F63°F62°F61°F61°F60°F62°F66°F69°F73°F76°F79°F81°F83°F83°F83°F82°F79°F76°F72°F
Feels Like 75°F74°F74°F73°F72°F72°F69°F67°F66°F65°F65°F67°F70°F74°F77°F79°F81°F82°F82°F82°F81°F80°F76°F72°F70°F68°F66°F65°F64°F62°F61°F60°F60°F60°F62°F65°F69°F73°F76°F79°F81°F82°F82°F82°F81°F79°F76°F71°F
Cloudiness 100%100%100%100%99%100%100%100%100%100%100%100%100%100%100%100%100%99%92%85%83%87%89%98%98%82%87%89%91%100%100%96%97%98%98%85%86%90%93%93%90%84%79%80%85%87%80%63%
Visibility 6 mi6 mi6 mi6 mi6 mi6 mi6 mi6 mi6 mi6 mi6 mi6 mi6 mi6 mi6 mi6 mi6 mi6 mi6 mi6 mi6 mi6 mi6 mi6 mi6 mi6 mi6 mi6 mi6 mi6 mi6 mi6 mi6 mi6 mi6 mi6 mi6 mi6 mi6 mi6 mi6 mi6 mi6 mi6 mi6 mi6 mi6 mi6 mi
Precipitation 100%80%80%100%80%55%67%63%59%59%47%0%0%0%0%0%0%0%0%0%0%0%0%0%0%0%0%0%0%0%0%0%0%0%0%0%0%0%0%0%0%0%0%0%0%0%0%0%
Humidity 88%90%92%93%96%95%94%93%94%94%91%84%73%63%57%51%45%42%40%39%42%47%53%58%61%66%68%67%67%68%70%72%74%76%72%62%56%50%45%41%39%37%37%37%40%44%50%58%
Dew Point 70°F70°F70°F69°F70°F69°F66°F64°F63°F62°F62°F62°F61°F61°F60°F59°F57°F56°F56°F55°F56°F57°F58°F57°F56°F56°F55°F54°F53°F52°F52°F52°F52°F52°F53°F53°F53°F53°F53°F54°F54°F54°F54°F54°F55°F56°F56°F56°F
Pressure 30.12"30.12"30.12"30.12"30.09"30.09"30.12"30.12"30.12"30.15"30.15"30.18"30.18"30.18"30.18"30.15"30.15"30.12"30.12"30.12"30.09"30.09"30.12"30.12"30.15"30.15"30.18"30.18"30.18"30.15"30.15"30.15"30.15"30.18"30.18"30.21"30.18"30.18"30.18"30.18"30.15"30.12"30.12"30.12"30.12"30.09"30.12"30.12"
Wind Speed 2.8 mph4.2 mph4.4 mph4.9 mph6.3 mph7.4 mph7.3 mph7.2 mph6.8 mph7 mph7.7 mph8.7 mph9.7 mph9.7 mph10 mph10.1 mph9.7 mph9.7 mph9.8 mph10.2 mph10.3 mph9.4 mph8.2 mph7.3 mph7.3 mph6.8 mph6.9 mph7.9 mph7.8 mph7.3 mph7.5 mph7.6 mph7.3 mph7.1 mph8 mph9.2 mph9 mph8.8 mph8.2 mph8 mph7.7 mph7.9 mph7.9 mph8.5 mph8.6 mph8.5 mph7.7 mph5.9 mph
Wind
Direction
297°
WNW
263°
W
266°
W
303°
WNW
339°
NNW
360°
N
357°
N
355°
N

N

N

N
14°
NNE
23°
NNE
26°
NNE
26°
NNE
27°
NNE
26°
NNE
28°
NNE
27°
NNE
27°
NNE
27°
NNE
29°
NNE
29°
NNE
15°
NNE
13°
NNE
20°
NNE
24°
NNE
21°
NNE
26°
NNE
35°
NE
40°
NE
37°
NE
35°
NE
36°
NE
41°
NE
49°
NE
51°
NE
52°
NE
51°
NE
45°
NE
42°
NE
42°
NE
42°
NE
38°
NE
36°
NE
26°
NNE
23°
NNE
28°
NNE

Daily Forecast

Date High Low Precip. Humidity
Today
Jun 26

Rain
92 °F
72 °F
100%
64%
Monday
Jun 27

Rain
83 °F
64 °F
100%
51%
Tuesday
Jun 28

Clouds
83 °F
60 °F
0%
41%
Wednesday
Jun 29

Clouds
89 °F
63 °F
12%
46%
Thursday
Jun 30

Rain
85 °F
71 °F
90%
60%
Friday
Jul 1

Rain
81 °F
72 °F
100%
79%
Saturday
Jul 2

Rain
87 °F
68 °F
99%
56%
Sunday
Jul 3

Rain
87 °F
71 °F
99%
56%
Monday
Jul 4

Rain
87 °F
70 °F
79%
60%
Tuesday
Jul 5

Clouds
91 °F
71 °F
26%
38%
Wednesday
Jul 6

Clouds
92 °F
68 °F
0%
37%
Thursday
Jul 7

Clouds
93 °F
71 °F
17%
39%
Friday
Jul 8

Clear
95 °F
71 °F
11%
37%
Saturday
Jul 9

Clear
98 °F
73 °F
0%
30%
Sunday
Jul 10

Clouds
99 °F
77 °F
6%
34%
Monday
Jul 11

Rain
99 °F
78 °F
42%
35%

Temperature 8-14 Day Outlook



Precipitation 8-14 Day Outlook




Quick Links
J. Percy Priest Lake News
J. Percy Priest Lake Photos
J. Percy Priest Lake Videos




About Us
Contact Us
Site Map
Search Site
Advertise With Us
   
PercyPriest.USLakes.info
THE J. PERCY PRIEST LAKE WEBSITE

Copyright 2022, Lakes Online
Privacy    |    Legal